Satellite-Ground Cal/Val Region Overpasses Predictions

Prediction of Satellite NPP Overpassing Cal/Val Region: PacNW

Region Location: (Latitude: 10.00, Longitude: 139.50) to (Latitude: 22.70, Longitude: 165.60).

Table of predicted overpasses for the next 14.0 days since TLE Epoch: 1/7/2013
Interval Starting Time Starting Location Ending Time Ending Location
1 01/08/2013 03:21:33 ( 10.03, 148.86) 01/08/2013 03:25:08 ( 22.65, 145.85)
2 01/08/2013 15:53:26 ( 22.67, 146.10) 01/08/2013 15:57:01 ( 10.04, 143.09)
3 01/09/2013 03:02:30 ( 10.03, 153.62) 01/09/2013 03:06:05 ( 22.65, 150.62)
4 01/09/2013 15:34:23 ( 22.67, 150.86) 01/09/2013 15:37:58 ( 10.05, 147.86)
5 01/10/2013 02:43:28 ( 10.03, 158.38) 01/10/2013 02:47:03 ( 22.65, 155.38)
6 01/10/2013 15:15:21 ( 22.67, 155.62) 01/10/2013 15:18:56 ( 10.05, 152.62)
7 01/11/2013 02:24:25 ( 10.03, 163.14) 01/11/2013 02:28:00 ( 22.65, 160.14)
8 01/11/2013 14:56:18 ( 22.67, 160.38) 01/11/2013 14:59:53 ( 10.04, 157.38)
9 01/12/2013 02:08:10 ( 19.84, 165.60) 01/12/2013 02:08:58 ( 22.65, 164.90)
10 01/12/2013 03:46:53 ( 10.04, 142.53) 01/12/2013 03:50:28 ( 22.66, 139.52)
11 01/12/2013 14:37:16 ( 22.66, 165.14) 01/12/2013 14:40:51 ( 10.04, 162.14)
12 01/12/2013 16:18:46 ( 22.66, 139.77) 01/12/2013 16:19:04 ( 21.60, 139.50)
13 01/13/2013 03:27:50 ( 10.04, 147.29) 01/13/2013 03:31:25 ( 22.66, 144.28)
14 01/13/2013 15:59:43 ( 22.65, 144.53) 01/13/2013 16:03:18 ( 10.03, 141.52)
15 01/14/2013 03:08:48 ( 10.05, 152.05) 01/14/2013 03:12:23 ( 22.67, 149.04)
16 01/14/2013 15:40:41 ( 22.64, 149.29) 01/14/2013 15:44:16 ( 10.02, 146.28)
17 01/15/2013 02:49:46 ( 10.05, 156.81) 01/15/2013 02:53:21 ( 22.68, 153.80)
18 01/15/2013 15:21:37 ( 22.69, 154.06) 01/15/2013 15:25:13 ( 10.01, 151.04)
19 01/16/2013 02:30:42 ( 10.00, 161.58) 01/16/2013 02:34:18 ( 22.68, 158.56)
20 01/16/2013 15:02:35 ( 22.68, 158.82) 01/16/2013 15:06:11 ( 10.00, 155.80)
21 01/17/2013 02:12:35 ( 13.25, 165.60) 01/17/2013 02:15:16 ( 22.70, 163.32)
22 01/17/2013 03:53:10 ( 10.02, 140.96) 01/17/2013 03:54:57 ( 16.31, 139.50)
23
